OBJECT A, 61614

Orbit data source: Space-Track

OBJECT A, 61614 is a satellite owned by ZJUNI-SAT (CN) in SSO that was launched on Tue, 22 Oct 2024 UTC via a CHANG ZHENG 6 launch vehicle from the Taiyaun Space Center, China (TSC). Unknown objects in Earth's orbit typically refer to objects detected orbiting the Earth but have not yet been identified or cataloged. These objects could be anything from previously untracked satellites, spent rocket stages, debris from satellite collisions, or even natural meteoroids temporarily captured by Earth's gravity.

Loading next visibility...
Identifier
61614, 2024-189A
Orbit
SSO
Last TLE update
7 hours ago
Origin
Manufacturer
ZJUNI-SAT
Mission
Operational Defense Calibration
Bus & Motor
TP-3, Unknown motor
Mass
200 kg wet, ~200 kg dry
Launch date (UTC)
2024-10-22 (8 months ago)
Launch vehicle
CHANG ZHENG 6
Launch site
Taiyaun Space Center, China (TSC)
Object type
Unknown
Shape & HBR
Box, 0.6 m
Radar Cross Section
0.135 m², Large (>1 m²)

Expand to show TLE details & history

TLE from 7 hours ago
0 TIANPING 3A-01
1 61614U 24189A   25182.59307153  .00002568  00000-0  20570-3 0  9991
2 61614  97.5189 207.9970 0002404  95.8689 264.2809 15.00997120 37890
Epoch: 2025-07-01T14:14Z
TLE epoch observation values (Epoch: 2025-07-01T14:14:01.38Z)
Latitude
-0.00006°
Longitude
74.60496°
Altitude
567.048 km
Speed
7.577 km/s
True Right ascension
13h 51m 59s
True Declination
0° 00' 00"
Sunlit
Object was in daylight at epoch
Visualization orbit readout
Latitude
47.68042°
Longitude
-96.82469°
Altitude
569.955 km
Speed
7.581 km/s
Apparent Right ascension
23h 35m 17s
Apparent Declination
8° 17' 05"
Sunlit
Object is in daylight
Visualization observer readout
Local Sidereal Time
08:53:20
Azimuth
312.729° NW
Elevation
-29°
Doppler factor
1
Orbital elements
Apogee altitude
562.484 km
Perigee altitude
559.148 km
Semi-major axis
6,938.953 km
Eccentricity
0.00024
Inclination
97.5189°
RAAN
207.997°
Arg. of periapsis
95.8689°
True anomaly
Unknown
Mean anomaly
264.2809°
Eccentric anomaly
Unknown
Mean motion
3.75493 °/min
Orbital period
95.87 mins
BSTAR
0.0002057
Loading maneuver chart data...
Loading SW <> Apogee altitude chart data...
Loading historical data...
Loading historical data...
Loading historical data...
Loading historical data...
Loading historical data...
Loading historical data...
Loading historical data...
Other satellites on launch #189 in the year 2024 (2024-10-22 UTC)

OBJECT A Visibility forecast

Observer location: undefined°, undefined°

Span
Click to sort rows by Start time (UTC) header in descending order
Start Az.
Max El. time (UTC)
Max El. Az.
Max El.
End time (UTC)
End Az.
7 mins2025-07-02 01:33:07.741Z157.065° SSE2025-07-02 01:37:07.741Z47.755° ENE41.841°2025-07-02 01:40:07.741Z355.28° N
6 mins2025-07-02 14:48:07.741Z1.861° NNE2025-07-02 14:51:07.741Z274.025° WNW41.383°2025-07-02 14:54:07.741Z206.601° SW
|